Wind_Speed
3 3 4 4 5 6 6 6 6 6 6 6 6 5 5 4 3 2 2 1 1 2 2 3 4 5 6 7 7 7 7 7 8 8 8 8 7 7 7 8 7 7 7
3 3 3 4 5 5 6 6 6 6 6 6 6 5 4 4 3 3 2 2 2 2 3 3 4 5 6 7 7 7 7 8 8 8 8 8 7 8 7 7 8 7 8
2 2 2 3 4 5 6 6 6 6 6 5 5 5 5 5 4 3 3 2 2 2 3 4 5 5 6 6 7 8 7 8 8 8 8 7 7 8 8 8 8 8 8
2 2 3 3 4 4 5 6 6 6 6 6 6 6 5 5 5 4 3 3 3 3 4 4 5 6 6 7 7 8 8 8 8 8 8 7 7 8 8 8 8 9 9
2 2 3 3 3 4 5 6 6 6 6 6 6 6 6 6 5 4 4 4 4 4 4 5 5 6 7 7 8 8 9 9 9 9 8 8 8 8 9 9 8 8 9
1 2 2 3 3 4 4 5 6 6 6 6 6 6 6 6 5 5 4 4 4 4 5 5 6 7 7 7 7 8 8 9 9 9 9 8 8 9 9 10 9 9 9
2 2 2 3 3 4 4 5 5 5 6 6 6 7 7 6 6 5 5 4 5 5 5 5 5 7 7 8 8 8 8 9 9 9 9 9 8 9 9 10 10 9 9
1 2 2 3 3 3 4 4 4 5 5 6 6 7 7 7 6 5 5 5 4 4 4 4 5 6 7 8 9 9 9 9 9 9 9 9 8 9 9 10 10 10 9
2 1 2 2 3 3 4 4 4 4 5 5 6 7 7 7 6 6 5 5 4 4 4 4 4 5 6 7 8 9 9 9 10 9 9 9 9 9 9 10 10 10 9
2 2 1 2 3 3 4 3 4 4 5 6 6 7 6 6 6 6 5 5 5 4 4 4 4 5 5 6 7 8 9 10 10 10 10 10 9 9 9 10 10 9 9
3 2 1 1 2 3 3 3 4 4 5 6 6 6 6 6 7 6 6 5 5 4 3 3 4 4 5 6 7 8 8 9 10 10 10 10 10 10 9 10 10 10 9
3 2 1 0 1 2 2 3 3 4 5 5 6 6 6 6 7 7 7 5 5 4 3 3 3 3 4 6 7 8 8 8 10 10 10 10 10 9 10 10 10 10 10
4 3 2 0 1 1 2 3 3 4 4 5 5 6 6 6 7 7 7 6 5 3 2 2 2 3 4 5 7 8 8 8 8 9 10 10 10 10 9 10 10 10 10
5 3 2 1 1 0 1 2 3 4 4 4 5 6 6 7 7 7 7 6 5 4 2 1 1 2 4 6 7 7 8 8 8 9 9 9 9 9 9 9 10 10 10
5 4 3 2 1 1 1 2 3 4 4 5 5 6 6 7 7 7 7 6 5 4 3 2 1 1 4 5 5 7 7 8 8 8 8 8 8 8 8 8 9 10 10
4 4 4 3 2 2 1 1 3 4 4 5 6 6 6 6 7 7 6 6 5 4 3 2 1 1 2 4 5 6 7 8 8 8 8 8 8 8 8 8 8 9 9
5 4 4 3 3 2 1 1 2 3 4 5 5 6 6 6 6 6 6 6 5 4 4 3 2 1 2 3 5 6 7 7 7 7 8 8 8 8 8 7 7 8 8
6 6 4 3 3 2 1 1 2 3 3 4 5 5 5 6 6 6 6 6 5 5 4 4 3 2 2 3 4 5 6 6 7 7 7 7 7 8 8 7 7 8 8
6 5 5 3 2 2 2 1 1 2 2 3 4 5 5 6 6 6 6 6 5 5 4 3 3 2 2 3 3 4 5 5 6 6 6 6 7 6 6 7 7 7 7
5 5 5 3 3 2 2 1 1 2 2 3 4 5 5 5 5 5 6 6 5 5 4 4 3 3 2 2 2 2 4 5 6 6 6 6 6 6 6 6 6 6 6
6 5 5 4 3 2 2 1 1 1 1 2 3 4 5 5 5 6 6 6 5 5 4 4 4 3 2 2 2 2 3 3 4 5 6 6 6 6 6 7 6 6 6
6 6 5 4 4 3 2 1 1 1 1 1 2 3 4 5 5 5 5 5 5 5 5 4 4 3 2 2 1 1 1 3 3 4 5 6 6 6 6 6 7 6 6
7 7 6 5 4 4 3 2 1 1 1 1 1 2 3 4 5 5 5 5 5 5 5 5 4 3 2 2 1 0 1 2 3 4 4 5 5 6 6 6 6 7 7
8 8 7 6 5 4 4 3 2 1 0 1 1 2 2 3 4 5 5 5 5 5 5 5 4 4 3 2 1 1 1 2 3 4 4 5 5 5 6 6 6 7 8
9 8 8 7 6 5 4 3 2 1 1 1 1 2 2 3 3 4 5 4 4 5 5 4 4 4 3 3 3 2 1 0 2 3 4 4 5 5 5 6 7 7 8
9 9 9 8 7 6 5 4 3 3 2 1 1 1 1 2 3 4 4 4 4 5 5 5 4 4 3 3 3 2 1 1 1 2 3 4 5 5 6 6 7 7 8
Wind_Direction
38 33 34 24 25 24 19 19 21 21 20 19 17 14 8 6 14 3 332 309 287 262 252 236 229 229 223 220 217 213 212 210 208 205 203 202 203 203 202 197 190 186 183
33 25 26 26 24 20 17 16 16 17 16 16 11 6 1 360 357 347 331 308 290 263 246 240 234 229 220 216 218 218 215 214 213 210 208 209 206 207 207 205 198 193 190
27 16 14 17 16 16 15 13 10 9 8 3 358 355 352 352 347 340 327 310 294 271 253 241 233 228 224 220 221 220 218 218 215 215 215 212 206 207 208 208 202 197 193
11 8 5 10 8 11 12 11 7 5 3 358 354 351 350 346 341 334 321 310 293 277 263 252 239 229 224 223 223 222 221 218 212 215 216 214 210 209 211 211 206 205 202
8 2 4 10 6 3 5 7 9 7 7 4 358 355 353 347 339 333 320 308 297 282 267 256 243 231 227 227 226 225 223 216 214 215 216 215 214 212 211 209 206 207 203
353 355 355 360 2 2 4 5 5 7 9 8 2 359 355 348 341 333 323 310 294 281 271 261 244 233 230 229 227 225 223 219 216 215 214 214 216 214 212 209 207 209 208
319 341 348 351 356 2 5 6 8 10 12 11 6 1 356 351 344 334 326 318 305 294 281 269 249 238 234 232 228 227 225 221 216 214 212 213 216 217 214 211 209 210 211
303 327 346 351 353 1 5 7 12 16 15 10 7 4 360 355 351 345 336 321 310 300 288 272 251 238 233 231 228 225 224 222 217 216 214 212 213 213 211 210 212 215 212
263 298 347 351 2 6 4 4 14 17 12 7 5 2 360 357 353 345 340 333 318 302 290 275 256 245 238 232 228 225 222 220 217 217 215 213 212 212 213 212 213 216 214
257 278 315 344 356 1 5 11 12 10 4 1 2 3 3 1 356 346 340 335 325 311 296 279 256 247 240 229 225 224 220 216 216 216 215 214 214 214 213 211 213 216 214
257 276 271 342 5 359 9 14 11 4 358 360 2 0 3 5 359 351 344 341 331 321 307 284 260 245 234 225 219 217 215 216 217 214 214 215 216 214 212 212 210 215 214
255 259 249 357 8 9 17 12 9 3 358 360 3 5 6 3 2 360 355 351 345 340 326 297 268 241 225 219 213 207 208 212 216 213 213 213 214 212 209 211 212 211 212
241 234 235 276 7 11 1 4 4 357 1 2 4 7 5 4 6 5 2 0 2 1 344 311 271 238 217 210 207 203 204 208 211 209 210 211 214 212 209 210 212 213 213
229 229 233 242 254 288 333 2 7 5 2 2 7 6 5 4 7 9 11 15 17 17 11 350 266 231 214 205 201 200 201 206 206 206 209 210 210 208 212 213 216 218 218
227 224 223 220 231 261 315 359 5 5 4 5 11 10 9 9 10 13 18 21 25 27 27 34 26 227 206 200 197 197 199 200 204 210 213 213 209 206 211 213 213 215 219
231 226 215 224 239 253 275 349 5 6 3 6 11 11 13 14 16 21 23 27 32 34 38 43 42 193 186 191 195 195 193 196 203 210 214 214 212 211 215 214 215 216 220
231 225 217 219 234 245 259 322 352 3 4 7 12 16 20 20 21 22 25 31 34 36 41 47 59 83 158 176 185 190 193 197 203 210 213 217 218 219 221 221 222 219 220
233 224 216 215 227 234 247 283 336 357 4 13 15 19 24 25 25 25 29 37 40 41 44 51 61 77 125 155 168 183 191 199 204 208 212 218 224 225 222 224 226 222 223
228 219 212 215 221 223 229 257 348 358 4 14 15 19 22 26 28 30 34 40 44 47 51 57 68 79 107 140 162 181 191 200 199 204 210 215 221 221 218 223 226 226 228
223 212 206 215 219 222 214 218 339 354 12 22 21 25 28 27 31 33 37 41 47 50 55 60 74 80 97 118 141 173 191 189 198 206 210 214 220 220 219 222 229 230 233
217 210 210 210 205 213 211 225 294 337 15 25 24 33 34 34 33 34 38 43 47 51 56 59 66 68 81 100 127 150 172 186 196 204 208 211 216 220 222 224 231 237 240
217 213 207 210 211 211 204 215 260 310 7 20 27 34 35 33 33 38 45 48 49 52 55 60 68 70 76 88 104 134 180 196 210 218 216 211 214 221 224 231 236 240 244
216 219 210 209 217 214 210 215 235 280 18 26 34 42 35 35 37 40 44 47 49 49 48 49 54 62 68 70 63 154 200 214 217 216 211 208 216 222 229 232 238 242 247
215 218 216 215 220 217 214 219 219 220 27 58 60 58 49 39 37 41 41 43 44 44 44 42 41 44 48 45 32 8 270 239 210 199 204 212 222 228 232 235 240 246 249
217 216 217 214 221 222 220 224 211 212 210 149 107 82 51 37 36 40 40 42 42 40 38 37 34 30 29 25 20 31 34 217 204 200 201 218 230 234 239 244 250 254 256
218 218 217 214 216 219 220 223 210 210 200 170 143 121 34 31 32 35 38 40 43 42 38 36 31 25 20 19 21 28 23 4 234 220 218 231 237 241 246 250 255 259 261
Height
5881 5881 5880 5880 5879 5879 5878 5877 5877 5876 5875 5875 5874 5874 5874 5873 5873 5873 5873 5874 5874 5874 5875 5875 5876 5876 5877 5878 5879 5881 5882 5883 5884 5885 5887 5888 5889 5890 5891 5892 5893 5895 5896
5881 5881 5881 5880 5879 5879 5878 5878 5877 5876 5875 5875 5874 5874 5874 5873 5873 5873 5873 5873 5873 5874 5874 5874 5875 5876 5876 5877 5878 5879 5881 5882 5883 5885 5886 5887 5888 5889 5890 5892 5893 5894 5895
5882 5881 5881 5881 5880 5879 5879 5878 5877 5876 5876 5875 5874 5874 5873 5873 5873 5873 5873 5873 5873 5873 5873 5873 5874 5875 5876 5877 5878 5879 5880 5881 5882 5884 5885 5886 5887 5889 5890 5891 5892 5894 5895
5882 5882 5881 5881 5880 5879 5879 5878 5877 5876 5876 5875 5874 5874 5873 5872 5872 5872 5872 5872 5872 5872 5872 5872 5873 5874 5875 5875 5876 5877 5879 5880 5882 5883 5884 5886 5887 5888 5889 5890 5892 5893 5894
5882 5882 5881 5881 5880 5880 5879 5878 5877 5876 5875 5875 5874 5873 5873 5872 5871 5871 5871 5871 5871 5871 5871 5871 5872 5873 5874 5874 5875 5876 5877 5879 5880 5882 5883 5885 5886 5887 5888 5889 5891 5892 5893
5882 5882 5882 5881 5880 5880 5879 5878 5877 5876 5875 5875 5874 5873 5872 5871 5871 5870 5870 5870 5870 5870 5870 5870 5871 5872 5872 5873 5874 5875 5876 5878 5880 5881 5883 5884 5885 5886 5887 5888 5890 5891 5892
5882 5882 5882 5881 5880 5880 5879 5878 5877 5876 5875 5875 5874 5873 5872 5871 5870 5870 5869 5869 5869 5869 5869 5869 5869 5870 5871 5872 5873 5874 5875 5877 5878 5880 5882 5883 5884 5885 5886 5888 5889 5890 5892
5882 5882 5882 5881 5880 5880 5879 5878 5877 5877 5876 5875 5874 5872 5871 5870 5869 5869 5868 5868 5868 5867 5868 5868 5868 5869 5869 5870 5871 5873 5874 5876 5877 5879 5881 5882 5883 5884 5886 5887 5888 5889 5891
5882 5882 5881 5881 5880 5880 5879 5878 5877 5877 5876 5875 5874 5872 5871 5870 5869 5868 5868 5867 5866 5866 5866 5866 5867 5867 5868 5869 5870 5871 5873 5874 5876 5878 5879 5881 5882 5883 5885 5886 5887 5889 5890
5881 5881 5881 5881 5880 5880 5879 5878 5878 5877 5876 5875 5874 5872 5871 5870 5869 5868 5867 5866 5865 5865 5865 5865 5865 5866 5867 5867 5868 5870 5872 5873 5875 5877 5878 5880 5881 5882 5884 5885 5886 5888 5889
5881 5881 5881 5880 5880 5879 5879 5878 5878 5877 5876 5875 5874 5872 5871 5870 5869 5867 5866 5865 5864 5864 5863 5863 5864 5864 5865 5866 5867 5869 5870 5872 5873 5875 5877 5878 5880 5881 5883 5884 5885 5886 5888
5880 5880 5880 5880 5880 5879 5879 5879 5878 5877 5876 5875 5874 5872 5871 5870 5868 5867 5866 5864 5863 5863 5862 5862 5863 5863 5864 5865 5866 5868 5869 5871 5872 5874 5875 5877 5878 5880 5881 5883 5884 5885 5887
5880 5880 5880 5880 5880 5879 5879 5878 5878 5877 5876 5875 5874 5872 5871 5869 5868 5867 5865 5864 5863 5862 5862 5862 5862 5862 5863 5864 5865 5866 5868 5869 5870 5872 5874 5875 5877 5878 5880 5881 5883 5884 5885
5878 5879 5879 5879 5879 5879 5879 5878 5878 5877 5876 5875 5873 5872 5871 5869 5868 5866 5865 5863 5862 5862 5861 5861 5861 5861 5862 5863 5864 5865 5867 5868 5870 5871 5873 5874 5875 5877 5878 5880 5881 5883 5884
5878 5878 5879 5879 5879 5879 5879 5878 5877 5876 5875 5874 5873 5872 5870 5869 5868 5866 5865 5863 5862 5862 5861 5861 5861 5861 5861 5862 5863 5864 5866 5867 5869 5870 5872 5873 5875 5876 5877 5878 5880 5881 5883
5877 5878 5878 5878 5878 5878 5878 5878 5877 5876 5875 5874 5873 5872 5870 5869 5868 5866 5865 5864 5863 5862 5861 5860 5860 5860 5861 5861 5863 5864 5865 5867 5868 5870 5871 5872 5874 5875 5876 5877 5879 5880 5881
5876 5877 5877 5878 5878 5878 5878 5877 5877 5876 5875 5874 5873 5872 5870 5869 5868 5867 5865 5864 5863 5862 5861 5861 5860 5860 5861 5861 5862 5863 5865 5866 5867 5869 5870 5872 5873 5874 5875 5877 5878 5879 5880
5875 5876 5877 5877 5877 5877 5877 5877 5876 5876 5875 5874 5873 5872 5871 5869 5868 5867 5866 5865 5863 5862 5862 5861 5861 5861 5861 5861 5862 5863 5864 5865 5867 5868 5869 5871 5872 5874 5875 5876 5877 5878 5878
5874 5875 5876 5876 5877 5877 5877 5877 5876 5876 5875 5874 5873 5872 5871 5870 5869 5868 5866 5865 5864 5863 5862 5862 5862 5862 5862 5862 5862 5863 5864 5865 5866 5867 5869 5870 5872 5873 5874 5875 5876 5877 5877
5873 5874 5875 5875 5876 5876 5876 5876 5876 5876 5875 5874 5874 5873 5871 5870 5869 5868 5867 5866 5865 5864 5863 5863 5862 5862 5862 5862 5863 5863 5864 5865 5865 5867 5868 5869 5871 5872 5873 5874 5875 5876 5876
5872 5873 5874 5875 5875 5876 5876 5876 5876 5876 5875 5875 5874 5873 5872 5871 5870 5869 5868 5867 5866 5865 5865 5864 5863 5863 5863 5863 5863 5863 5864 5864 5865 5866 5867 5868 5870 5871 5872 5873 5874 5874 5875
5871 5872 5873 5874 5875 5875 5875 5876 5876 5875 5875 5875 5874 5873 5873 5872 5871 5870 5869 5868 5867 5866 5865 5865 5864 5864 5863 5863 5864 5863 5864 5865 5865 5865 5866 5867 5868 5870 5871 5871 5872 5873 5873
5870 5871 5872 5873 5874 5874 5875 5875 5875 5875 5875 5875 5874 5874 5873 5872 5871 5870 5869 5869 5868 5867 5866 5865 5865 5864 5864 5864 5864 5864 5864 5864 5864 5865 5865 5866 5867 5868 5869 5870 5870 5871 5872
5869 5870 5871 5872 5873 5874 5874 5875 5875 5875 5875 5874 5874 5874 5873 5873 5872 5871 5870 5869 5869 5868 5867 5866 5866 5865 5865 5864 5864 5864 5863 5863 5863 5864 5865 5865 5866 5867 5868 5868 5869 5869 5870
5867 5869 5870 5871 5872 5873 5873 5874 5874 5874 5874 5874 5874 5874 5874 5873 5872 5872 5871 5870 5870 5869 5868 5867 5867 5866 5865 5865 5864 5863 5863 5862 5862 5863 5864 5865 5865 5866 5866 5867 5867 5868 5868
5866 5867 5868 5869 5871 5872 5872 5873 5874 5874 5874 5874 5874 5874 5874 5874 5873 5872 5872 5871 5870 5870 5869 5868 5867 5867 5866 5865 5864 5864 5863 5863 5862 5863 5863 5864 5864 5865 5865 5865 5866 5866 5866